Weather History for Macomb, IL

Change the Weather History Date:

Thursday, August 14, 2014

  Actual Average (KBRL) Record (KBRL)
Temperature  
Mean Temperature 68 °F 76 °F  
Max Temperature 80 °F 85 °F 104 °F (1936)
Min Temperature 57 °F 66 °F 48 °F (2013)
Degree Days  
Heating Degree Days 0 0  
Month to date heating degree days 0  
Since 1 June heating degree days 14  
Since 1 July heating degree days 1  
Cooling Degree Days 4 11  
Month to date cooling degree days 154  
Year to date cooling degree days 883  
Since 1 June cooling degree days 780  
Growing Degree Days 18 (Base 50)    
Moisture  
Dew Point 63 °F    
Average Humidity 84    
Maximum Humidity 100    
Minimum Humidity 57    
Precipitation  
Precipitation 0.00 in 0.14 in 0.51 in (1951)
Month to date precipitation 1.84  
Year to date precipitation 24.82  
Sea Level Pressure  
Sea Level Pressure 30.08 in    
Wind  
Wind Speed 4 mph (NW)    
Max Wind Speed 7 mph    
Max Gust Speed -    
Visibility 10 miles    
Events      
T = Trace of Precipitation, MM = Missing Value Source: NWS Daily Summary

Daily Weather History Graph

Daily Weather History Graph

Search for Another Location

Airport:

Trip Planner

Search our weather history database for the weather conditions in past years. The results will help you decide how hot, cold, wet, or windy it might be!

Date:

Astronomy

Aug. 14, 2014 Rise Set
Actual Time 6:12 AM CDT 8:01 PM CDT
Civil Twilight 5:42 AM CDT 8:30 PM CDT
Nautical Twilight 5:07 AM CDT 9:06 PM CDT
Astronomical Twilight 4:28 AM CDT 9:44 PM CDT
Moon 10:23 PM CDT (8/14) 10:50 AM CDT (8/14)
Length of Visible Light 14h 47m
Length of Day
13h 49m
Waning Gibbous, 79% of the Moon is Illuminated
Aug 14
Waning Gibbous
Aug 17
Last Quarter
Aug 25
New
Sep 2
First Quarter
Sep 8
Full

Hourly Weather History & Observations

Time (CDT) Temp. Heat Index Dew Point Humidity Pressure Visibility Wind Dir Wind Speed Gust Speed Precip Events Conditions
12:15 AM 60.8 °F - 59.9 °F 97% 30.09 in 10.0 mi WSW 6.9 mph - N/A   Clear
12:35 AM 60.8 °F - 59.9 °F 97% 30.09 in 10.0 mi West 4.6 mph - N/A   Clear
12:55 AM 60.4 °F - 59.7 °F 97% 30.09 in 10.0 mi West 3.5 mph - N/A   Clear
1:15 AM 59.9 °F - 59.2 °F 97% 30.09 in 10.0 mi West 3.5 mph - N/A   Clear
1:35 AM 59.2 °F - 58.8 °F 99% 30.09 in 10.0 mi West 4.6 mph - N/A   Clear
1:55 AM 59.2 °F - 59.0 °F 99% 30.09 in 10.0 mi West 4.6 mph - N/A   Clear
2:15 AM 59.2 °F - 59.0 °F 99% 30.08 in 10.0 mi West 3.5 mph - N/A   Clear
2:35 AM 59.0 °F - 58.6 °F 99% 30.08 in 10.0 mi West 4.6 mph - N/A   Clear
2:55 AM 59.2 °F - 58.8 °F 99% 30.08 in 10.0 mi West 4.6 mph - N/A   Clear
3:15 AM 58.5 °F - 58.1 °F 99% 30.08 in 10.0 mi West 5.8 mph - N/A   Clear
3:35 AM 59.7 °F - 59.2 °F 98% 30.08 in 10.0 mi West 5.8 mph - N/A   Clear
3:55 AM 59.4 °F - 59.0 °F 99% 30.08 in 10.0 mi West 5.8 mph - N/A   Clear
4:15 AM 59.0 °F - 58.3 °F 97% 30.08 in 10.0 mi West 4.6 mph - N/A   Clear
4:35 AM 58.5 °F - 58.1 °F 99% 30.09 in 10.0 mi West 3.5 mph - N/A   Clear
4:55 AM 58.1 °F - 57.7 °F 99% 30.09 in 10.0 mi West 4.6 mph - N/A   Clear
5:15 AM 58.1 °F - 58.1 °F 100% 30.09 in 10.0 mi West 4.6 mph - N/A   Scattered Clouds
5:35 AM 58.6 °F - 58.5 °F 99% 30.10 in 10.0 mi WSW 4.6 mph - N/A   Scattered Clouds
5:55 AM 59.0 °F - 59.0 °F 100% 30.10 in 10.0 mi West 3.5 mph - N/A   Mostly Cloudy
6:15 AM 59.2 °F - 59.0 °F 99% 30.10 in 10.0 mi WNW 5.8 mph - N/A   Scattered Clouds
6:35 AM 58.1 °F - 57.7 °F 99% 30.10 in 5.0 mi WNW 3.5 mph - N/A   Clear
6:55 AM 57.9 °F - 57.9 °F 100% 30.10 in 7.0 mi West 4.6 mph - N/A   Clear
7:15 AM 61.0 °F - 60.8 °F 99% 30.10 in 10.0 mi West 5.8 mph - N/A   Clear
7:35 AM 62.6 °F - 61.5 °F 96% 30.10 in 10.0 mi West 4.6 mph - N/A   Clear
7:55 AM 64.8 °F - 62.6 °F 93% 30.11 in 10.0 mi West 4.6 mph - N/A   Clear
8:15 AM 66.4 °F - 63.3 °F 90% 30.11 in 10.0 mi WNW 5.8 mph - N/A   Clear
8:35 AM 68.5 °F - 64.0 °F 85% 30.11 in 10.0 mi NW 4.6 mph - N/A   Clear
8:55 AM 69.4 °F - 63.9 °F 82% 30.11 in 10.0 mi NW 5.8 mph - N/A   Clear
9:15 AM 69.3 °F - 64.2 °F 84% 30.11 in - NNW 4.6 mph - N/A   Clear
9:35 AM 70.9 °F - 64.4 °F 80% 30.11 in - NW 4.6 mph - N/A   Clear
9:55 AM 72.0 °F - 64.8 °F 78% 30.11 in - Calm Calm - N/A   Clear
10:15 AM 73.2 °F - 65.3 °F 76% 30.11 in - Calm Calm - N/A   Clear
10:35 AM 73.4 °F - 64.8 °F 74% 30.11 in - WNW 3.5 mph - N/A   Clear
10:55 AM 74.5 °F - 65.1 °F 72% 30.11 in 10.0 mi WNW 5.8 mph - N/A   Clear
11:15 AM 75.9 °F - 66.2 °F 72% 30.11 in 10.0 mi NW 5.8 mph - N/A   Clear
11:35 AM 76.1 °F - 65.8 °F 70% 30.11 in 10.0 mi NW 5.8 mph - N/A   Clear
11:55 AM 76.6 °F - 65.5 °F 68% 30.11 in 10.0 mi WNW 5.8 mph - N/A   Clear
12:15 PM 77.0 °F - 66.7 °F 70% 30.11 in 10.0 mi NW 3.5 mph - N/A   Clear
12:35 PM 77.2 °F - 65.8 °F 68% 30.10 in 10.0 mi North 5.8 mph - N/A   Scattered Clouds
12:55 PM 77.9 °F - 66.7 °F 68% 30.10 in 10.0 mi North 6.9 mph - N/A   Mostly Cloudy
1:15 PM 78.6 °F - 66.6 °F 66% 30.09 in 10.0 mi North 3.5 mph - N/A   Scattered Clouds
1:35 PM 78.3 °F - 66.9 °F 68% 30.09 in 10.0 mi NE 5.8 mph - N/A   Scattered Clouds
1:55 PM 77.7 °F - 66.7 °F 69% 30.09 in 10.0 mi NNE 4.6 mph - N/A   Mostly Cloudy
2:15 PM 77.4 °F - 67.1 °F 71% 30.08 in 10.0 mi Calm Calm - N/A   Mostly Cloudy
2:35 PM 79.2 °F - 66.4 °F 65% 30.08 in 7.0 mi ENE 4.6 mph - N/A   Scattered Clouds
2:55 PM 79.7 °F - 67.3 °F 66% 30.08 in 10.0 mi NE 3.5 mph - N/A   Scattered Clouds
3:15 PM 79.5 °F - 64.8 °F 60% 30.07 in 10.0 mi NNE 4.6 mph - N/A   Clear
3:35 PM 79.7 °F - 65.3 °F 61% 30.07 in 10.0 mi ENE 4.6 mph - N/A   Clear
3:55 PM 79.9 °F - 64.4 °F 59% 30.06 in 10.0 mi ESE 3.5 mph - N/A   Scattered Clouds
4:15 PM 79.3 °F - 63.5 °F 58% 30.06 in 10.0 mi Calm Calm - N/A   Mostly Cloudy
4:35 PM 80.6 °F 82.2 °F 64.2 °F 57% 30.06 in 10.0 mi NE 3.5 mph - N/A   Mostly Cloudy
4:55 PM 79.9 °F - 64.0 °F 58% 30.06 in 10.0 mi East 3.5 mph - N/A   Scattered Clouds
5:15 PM 79.2 °F - 64.2 °F 60% 30.05 in 10.0 mi North 3.5 mph - N/A   Scattered Clouds
5:35 PM 79.5 °F - 64.8 °F 60% 30.05 in 10.0 mi NNE 5.8 mph - N/A   Scattered Clouds
5:55 PM 78.6 °F - 64.9 °F 63% 30.05 in 10.0 mi Calm Calm - N/A   Mostly Cloudy
6:15 PM 77.0 °F - 66.9 °F 71% 30.05 in 10.0 mi NE 3.5 mph - N/A   Scattered Clouds
6:35 PM 77.0 °F - 67.1 °F 71% 30.04 in 10.0 mi Calm Calm - N/A   Clear
6:55 PM 76.1 °F - 66.4 °F 72% 30.04 in 10.0 mi Calm Calm - N/A   Clear
7:15 PM 74.8 °F - 66.7 °F 76% 30.04 in 10.0 mi NE 3.5 mph - N/A   Clear
7:35 PM 73.4 °F - 67.5 °F 82% 30.05 in 10.0 mi ENE 3.5 mph - N/A   Scattered Clouds
7:55 PM 72.3 °F - 68.4 °F 87% 30.05 in 10.0 mi ENE 3.5 mph - N/A   Scattered Clouds
8:15 PM 71.2 °F - 67.8 °F 89% 30.05 in 10.0 mi ENE 4.6 mph - N/A   Clear
8:35 PM 70.0 °F - 67.1 °F 91% 30.05 in 10.0 mi ENE 4.6 mph - N/A   Clear
8:55 PM 69.1 °F - 66.6 °F 92% 30.05 in 10.0 mi ENE 3.5 mph - N/A   Clear
9:15 PM 68.2 °F - 65.8 °F 92% 30.06 in 10.0 mi Calm Calm - N/A   Clear
9:35 PM 67.1 °F - 65.5 °F 95% 30.06 in 10.0 mi ENE 3.5 mph - N/A   Clear
9:55 PM 64.9 °F - 64.2 °F 98% 30.06 in 10.0 mi Calm Calm - N/A   Clear
10:15 PM 63.9 °F - 62.8 °F 96% 30.06 in 10.0 mi Calm Calm - N/A   Clear
10:35 PM 63.5 °F - 62.8 °F 97% 30.07 in 7.0 mi Calm Calm - N/A   Clear
10:55 PM 63.7 °F - 62.6 °F 96% 30.07 in 10.0 mi Calm Calm - N/A   Clear
11:15 PM 63.0 °F - 62.6 °F 99% 30.07 in 10.0 mi ENE 3.5 mph - N/A   Clear
11:35 PM 63.0 °F - 62.6 °F 99% 30.07 in 7.0 mi Calm Calm - N/A   Clear
11:55 PM 62.1 °F - 61.5 °F 98% 30.07 in 10.0 mi East 3.5 mph - N/A   Clear